EW6709 Weather Reports


Display with metric or nautical units.
time (UTC)temp
F
wind
direction
speed
MPH
gust
MPH
rain 1hr
in
rain 24hr
in
rain mn
in
humidity
%
barometer
mb
20260504081520 46 209 0.0 0.0 0.00 0.00 0.00 84 1018.1
20260504044606 45 224 0.0 0.0 0.00 0.00 0.00 82 1018.2
20260504043100 45 224 0.0 0.0 0.00 0.00 0.00 83 1018.4
20260504041557 46 224 0.0 0.0 0.00 0.00 0.00 82 1018.3
20260504040106 46 224 0.0 0.0 0.00 0.00 0.00 82 1018.3
20260504034618 46 224 0.0 0.0 0.00 0.00 0.00 82 1018.3
20260504033054 46 224 0.0 0.0 0.00 0.00 0.00 81 1018.2
20260504031553 46 224 0.0 0.0 0.00 0.00 0.00 81 1018.2
20260504030118 47 224 0.0 0.0 0.00 0.00 0.00 80 1018.1
20260504024558 47 224 0.0 0.0 0.00 0.00 0.00 79 1018.0
20260504023051 47 224 0.0 0.0 0.00 0.00 0.00 78 1018.0
20260504021553 48 224 0.0 0.0 0.00 0.00 0.00 76 1018.1
20260504020056 48 224 0.0 0.0 0.00 0.00 0.00 74 1018.0
20260504014555 49 224 0.0 0.0 0.00 0.00 0.00 72 1017.9
20260504013053 50 224 0.0 0.0 0.00 0.00 0.00 71 1017.8
20260504011548 51 224 0.0 0.0 0.00 0.00 0.00 69 1017.6
20260504010047 52 224 0.0 0.0 0.00 0.00 0.00 67 1017.5
20260504004547 53 224 0.0 0.0 0.00 0.00 0.00 62 1017.2
20260504003046 54 224 0.0 0.0 0.00 0.00 0.00 60 1017.1
20260504001559 56 224 0.0 0.0 0.00 0.00 0.00 58 1017.1
20260504000047 58 224 0.0 0.0 0.00 0.00 0.00 51 1016.9
20260503234545 60 224 0.0 0.0 0.00 0.00 0.00 46 1016.9
20260503233044 61 224 0.0 0.0 0.00 0.00 0.00 44 1016.9
20260503231551 62 220 0.0 0.0 0.00 0.00 0.00 38 1016.8
20260503230047 63 228 0.0 5.0 0.00 0.00 0.00 36 1016.8
20260503224543 64 66 0.0 0.0 0.00 0.01 0.00 37 1016.9
20260503223043 64 225 0.0 1.0 0.00 0.01 0.00 35 1016.8
20260503221545 65 251 0.0 4.0 0.00 0.01 0.00 37 1016.8
20260503220041 66 185 0.0 1.0 0.00 0.01 0.00 34 1016.7
20260503214541 66 206 0.0 5.0 0.00 0.01 0.00 35 1016.8
20260503213045 66 228 0.0 2.0 0.00 0.01 0.00 36 1017.0
20260503211545 66 236 0.0 9.0 0.00 0.01 0.00 35 1017.0
20260503210038 66 277 0.0 4.0 0.00 0.01 0.00 37 1017.0
20260503204542 66 183 0.0 4.0 0.00 0.01 0.00 36 1017.1
20260503203037 66 284 0.0 2.0 0.00 0.01 0.00 39 1017.3
20260503201536 65 221 0.0 7.0 0.00 0.01 0.00 33 1017.4
20260503200036 65 246 0.0 6.0 0.00 0.01 0.00 35 1017.7
20260503194537 65 238 0.0 3.0 0.00 0.01 0.00 37 1017.8
20260503193032 64 216 0.0 7.0 0.00 0.01 0.00 35 1018.0
20260503191530 64 224 1.0 7.0 0.00 0.01 0.00 35 1018.3
20260503190042 64 220 1.0 7.0 0.00 0.01 0.00 36 1018.4
20260503184526 63 17 0.0 5.0 0.00 0.01 0.00 43 1018.5
20260503183024 62 231 2.0 11.0 0.00 0.01 0.00 36 1018.8
20260503181524 62 211 0.0 10.0 0.00 0.01 0.00 39 1018.9
20260503180035 63 219 0.0 6.0 0.00 0.01 0.00 38 1019.1
20260503174521 62 192 1.0 8.0 0.00 0.01 0.00 37 1019.1
20260503173019 61 232 0.0 9.0 0.00 0.01 0.00 42 1019.3
20260503171532 61 190 2.0 9.0 0.00 0.01 0.00 40 1019.5